Location: Capelle
(50.3413°N, 1.9974°E)
Time: 23:33:22
(UTC+00:00)

Cosmos 1697 Rocket - Pass Details

Date: 12 January 2026
Orbit: 830 x 844 km, 71.0° (Epoch: 18 February)

Event Time Altitude Azimuth Distance (km) Brightness Sun altitude
Rises 17:05:47 0° 330° (NNW) 3,403 5.9 -8.2°
Reaches altitude 10° 17:09:45 10° 357° (N) 2,469 4.9 -8.8°
Maximum altitude 17:12:22 13° 25° (NNE) 2,248 4.5 -9.2°
Enters shadow 17:14:45 11° 50° (NE) 2,431 4.5 -9.5°
